When you browse on this site, cookies collect data to enhance your experience and personalize the content and advertising you see.
Visit our Privacy Policy to learn more. By continuing to use the site, you agree to this use of cookies and data.
  • In Czech Republic
  • List of Countries
  • For 7 days
  • Water Temperature
  • Weather Map
  • Weather Widgets
  • user-avatar
    Login

    Hourly Weather Sala

    Today, 3 April, Friday

    Time Temperature Precipitation Wind Pressure Humidity
    00:00 -2°C° 0.1 mm 5 mps 726 mmHg 68%
    01:00 -3°C° 0 mm 6 mps 726 mmHg 59%
    02:00 -2°C° 0.1 mm 6 mps 726 mmHg 63%
    03:00 -2°C° 0.1 mm 7 mps 726 mmHg 66%
    04:00 -2°C° 0.1 mm 8 mps 727 mmHg 69%
    05:00 -2°C° 0.1 mm 7 mps 728 mmHg 63%
    06:00 -2°C° 0.1 mm 7 mps 730 mmHg 56%
    07:00 -2°C° 0.1 mm 7 mps 732 mmHg 49%
    08:00 -1°C° 0 mm 7 mps 733 mmHg 45%
    09:00 +1°C° 0 mm 6 mps 734 mmHg 42%
    10:00 +2°C° 0 mm 6 mps 736 mmHg 38%
    11:00 +3°C° 0 mm 6 mps 737 mmHg 36%
    12:00 +3°C° 0 mm 6 mps 738 mmHg 34%
    13:00 +4°C° 0 mm 6 mps 739 mmHg 32%
    14:00 +3°C° 0 mm 6 mps 740 mmHg 32%
    15:00 +3°C° 0 mm 5 mps 740 mmHg 32%
    16:00 +3°C° 0 mm 5 mps 741 mmHg 32%
    17:00 +3°C° 0 mm 4 mps 742 mmHg 37%
    18:00 +2°C° 0 mm 3 mps 743 mmHg 42%
    19:00 +1°C° 0 mm 2 mps 744 mmHg 47%
    20:00 +1°C° 0 mm 2 mps 744 mmHg 50%
    21:00 -1°C° 0 mm 2 mps 745 mmHg 53%
    22:00 -2°C° 0 mm 2 mps 745 mmHg 56%
    23:00 -2°C° 0 mm 2 mps 746 mmHg 57%

    Tomorrow, 4 April, Saturday

    Time Temperature Precipitation Wind Pressure Humidity
    00:00 -2°C° 0 mm 2 mps 747 mmHg 57%
    01:00 -2°C° 0 mm 2 mps 748 mmHg 57%
    02:00 -2°C° 0 mm 2 mps 748 mmHg 57%
    03:00 0°C° 0 mm 1 mps 749 mmHg 56%
    04:00 0°C° 0 mm 1 mps 750 mmHg 56%
    05:00 0°C° 0 mm 1 mps 750 mmHg 53%
    06:00 -1°C° 0 mm 2 mps 751 mmHg 50%
    07:00 +1°C° 0 mm 2 mps 751 mmHg 47%
    08:00 +1°C° 0 mm 3 mps 752 mmHg 40%
    09:00 +1°C° 0 mm 4 mps 753 mmHg 33%
    10:00 +2°C° 0 mm 5 mps 754 mmHg 26%
    11:00 +2°C° 0 mm 5 mps 754 mmHg 25%
    12:00 +3°C° 0 mm 5 mps 755 mmHg 23%
    13:00 +3°C° 0 mm 5 mps 756 mmHg 22%
    14:00 +4°C° 0 mm 4 mps 756 mmHg 22%
    15:00 +4°C° 0 mm 4 mps 757 mmHg 23%
    16:00 +4°C° 0 mm 4 mps 758 mmHg 23%
    17:00 +2°C° 0 mm 3 mps 758 mmHg 29%
    18:00 +2°C° 0 mm 2 mps 759 mmHg 35%
    19:00 0°C° 0 mm 0 mps 760 mmHg 41%
    20:00 +1°C° 0 mm 1 mps 761 mmHg 42%
    21:00 0°C° 0 mm 1 mps 761 mmHg 44%
    22:00 0°C° 0 mm 1 mps 762 mmHg 45%
    23:00 0°C° 0 mm 1 mps 763 mmHg 45%

    Day after tomorrow, 5 April, Sunday

    Time Temperature Precipitation Wind Pressure Humidity
    00:00 -1°C° 0 mm 0 mps 763 mmHg 45%
    01:00 -1°C° 0 mm 0 mps 764 mmHg 45%
    02:00 0°C° 0 mm 1 mps 764 mmHg 46%
    03:00 0°C° 0 mm 1 mps 764 mmHg 46%
    04:00 0°C° 0 mm 1 mps 765 mmHg 46%
    05:00 +1°C° 0 mm 1 mps 765 mmHg 48%
    06:00 +1°C° 0 mm 2 mps 765 mmHg 50%
    07:00 +1°C° 0 mm 2 mps 765 mmHg 52%
    08:00 +1°C° 0 mm 3 mps 765 mmHg 59%
    09:00 +2°C° 0 mm 3 mps 765 mmHg 67%
    10:00 +2°C° 0 mm 3 mps 765 mmHg 75%
    11:00 +3°C° 0 mm 3 mps 765 mmHg 77%
    12:00 +4°C° 0 mm 3 mps 764 mmHg 78%
    13:00 +4°C° 0 mm 3 mps 764 mmHg 80%
    14:00 +7°C° 0 mm 3 mps 764 mmHg 75%
    15:00 +8°C° 0 mm 3 mps 764 mmHg 69%
    16:00 +9°C° 0 mm 3 mps 763 mmHg 64%
    17:00 +8°C° 0 mm 3 mps 763 mmHg 69%
    18:00 +5°C° 0 mm 3 mps 763 mmHg 75%
    19:00 +5°C° 0 mm 2 mps 763 mmHg 81%
    20:00 +5°C° 0 mm 2 mps 763 mmHg 82%
    21:00 +4°C° 0 mm 2 mps 763 mmHg 83%
    22:00 +4°C° 0 mm 2 mps 763 mmHg 85%
    23:00 +4°C° 0 mm 2 mps 763 mmHg 83%

    6 April, Monday

    Time Temperature Precipitation Wind Pressure Humidity
    00:00 +2°C° 0 mm 3 mps 763 mmHg 82%
    01:00 +2°C° 0 mm 3 mps 763 mmHg 81%
    02:00 +2°C° 0 mm 3 mps 763 mmHg 80%
    03:00 +2°C° 0 mm 3 mps 763 mmHg 78%
    04:00 +2°C° 0 mm 3 mps 763 mmHg 77%
    05:00 +2°C° 0 mm 3 mps 762 mmHg 75%
    06:00 +3°C° 0 mm 4 mps 762 mmHg 74%
    07:00 +3°C° 0 mm 4 mps 762 mmHg 73%
    08:00 +5°C° 0 mm 4 mps 762 mmHg 68%
    09:00 +6°C° 0 mm 4 mps 761 mmHg 63%
    10:00 +8°C° 0 mm 4 mps 761 mmHg 57%
    11:00 +11°C° 0 mm 4 mps 761 mmHg 53%
    12:00 +12°C° 0 mm 5 mps 760 mmHg 48%
    13:00 +13°C° 0 mm 5 mps 760 mmHg 44%
    14:00 +14°C° 0 mm 5 mps 759 mmHg 43%
    15:00 +14°C° 0 mm 5 mps 759 mmHg 41%
    16:00 +15°C° 0 mm 4 mps 759 mmHg 40%
    17:00 +13°C° 0 mm 4 mps 758 mmHg 47%
    18:00 +11°C° 0 mm 4 mps 758 mmHg 53%
    19:00 +9°C° 0 mm 3 mps 758 mmHg 60%
    20:00 +9°C° 0 mm 3 mps 758 mmHg 62%
    21:00 +8°C° 0 mm 3 mps 758 mmHg 64%
    22:00 +8°C° 0 mm 3 mps 758 mmHg 65%
    23:00 +7°C° 0 mm 3 mps 758 mmHg 69%

    7 April, Tuesday

    Time Temperature Precipitation Wind Pressure Humidity
    00:00 +7°C° 0 mm 3 mps 757 mmHg 72%
    01:00 +7°C° 0 mm 3 mps 757 mmHg 75%
    02:00 +7°C° 0 mm 4 mps 757 mmHg 77%
    03:00 +7°C° 0 mm 4 mps 757 mmHg 80%
    04:00 +8°C° 0 mm 4 mps 756 mmHg 82%
    05:00 +8°C° 0 mm 4 mps 757 mmHg 78%
    06:00 +8°C° 0 mm 5 mps 757 mmHg 73%
    07:00 +8°C° 0 mm 5 mps 758 mmHg 69%
    08:00 +8°C° 0 mm 5 mps 759 mmHg 65%
    09:00 +10°C° 0 mm 4 mps 760 mmHg 61%
    10:00 +11°C° 0 mm 4 mps 761 mmHg 58%
    11:00 +12°C° 0 mm 3 mps 762 mmHg 53%
    12:00 +12°C° 0 mm 3 mps 762 mmHg 49%
    13:00 +14°C° 0 mm 2 mps 763 mmHg 44%
    14:00 +14°C° 0 mm 2 mps 764 mmHg 42%
    15:00 +15°C° 0 mm 2 mps 764 mmHg 40%
    16:00 +14°C° 0 mm 3 mps 765 mmHg 37%
    17:00 +12°C° 0 mm 3 mps 765 mmHg 42%
    18:00 +12°C° 0 mm 2 mps 765 mmHg 46%
    19:00 +9°C° 0 mm 2 mps 766 mmHg 51%
    20:00 +8°C° 0 mm 2 mps 766 mmHg 52%
    21:00 +8°C° 0 mm 3 mps 766 mmHg 53%
    22:00 +7°C° 0 mm 3 mps 766 mmHg 54%
    23:00 +6°C° 0 mm 4 mps 766 mmHg 58%

    8 April, Wednesday

    Time Temperature Precipitation Wind Pressure Humidity
    00:00 +6°C° 0 mm 4 mps 765 mmHg 62%
    01:00 +5°C° 0 mm 4 mps 765 mmHg 66%
    02:00 +5°C° 0 mm 5 mps 765 mmHg 65%
    03:00 +5°C° 0 mm 5 mps 764 mmHg 64%
    04:00 +5°C° 0 mm 5 mps 764 mmHg 63%
    05:00 +5°C° 0 mm 6 mps 763 mmHg 60%
    06:00 +7°C° 0 mm 6 mps 763 mmHg 58%
    07:00 +6°C° 0 mm 7 mps 763 mmHg 55%
    08:00 +8°C° 0 mm 7 mps 762 mmHg 52%
    09:00 +10°C° 0 mm 7 mps 762 mmHg 50%
    10:00 +11°C° 0 mm 7 mps 762 mmHg 47%
    11:00 +12°C° 0 mm 7 mps 761 mmHg 45%
    12:00 +14°C° 0 mm 7 mps 761 mmHg 44%
    13:00 +15°C° 0 mm 7 mps 761 mmHg 43%
    14:00 +15°C° 0 mm 6 mps 761 mmHg 44%
    15:00 +15°C° 0 mm 6 mps 760 mmHg 45%
    16:00 +15°C° 0 mm 6 mps 760 mmHg 46%
    17:00 +13°C° 0 mm 5 mps 760 mmHg 50%
    18:00 +12°C° 0 mm 4 mps 761 mmHg 54%
    19:00 +11°C° 0 mm 3 mps 761 mmHg 58%
    20:00 +10°C° 0 mm 3 mps 761 mmHg 61%
    21:00 +9°C° 0 mm 3 mps 761 mmHg 64%
    22:00 +8°C° 0 mm 3 mps 762 mmHg 67%
    23:00 +7°C° 0 mm 2 mps 762 mmHg 71%
    Show more